Location: Parma
(44.8000°N, 10.3330°E)
Time: 13:01:44
(UTC+02:00)

ISS - Visible Passes

Search period start: 11 May 2021 00:00
Search period end: 21 May 2021 00:00
Orbit: 417 x 422 km, 51.6° (Epoch: 11 May)

Date Brightness Start Highest point End Pass type
(mag) Time Alt. Az. Time Alt. Az. Time Alt. Az.
11 May -1.6 02:04:21 27° NNE 02:04:21 27° NNE 02:06:36 10° NE visible
11 May -1.5 03:38:07 10° NW 03:41:01 26° N 03:43:56 10° ENE visible
11 May -3.2 05:14:55 10° NW 05:18:17 63° NNE 05:21:38 10° ESE visible
12 May -1.0 01:18:16 16° NE 01:18:16 16° NE 01:19:11 10° NE visible
12 May -1.4 02:51:12 14° NW 02:53:25 24° N 02:56:16 10° ENE visible
12 May -2.6 04:27:31 10° NW 04:30:47 45° NNE 04:34:03 10° E visible
13 May -1.5 02:05:02 23° NNW 02:05:48 25° N 02:08:40 10° NE visible
13 May -2.0 03:40:07 10° NW 03:43:15 35° NNE 03:46:24 10° E visible
13 May -3.6 05:16:53 10° WNW 05:20:12 54° SW 05:23:30 10° SE visible
14 May -1.5 01:18:39 26° N 01:18:39 26° N 01:21:09 10° NE visible
14 May -1.7 02:52:40 10° NW 02:55:41 29° NNE 02:58:42 10° ENE visible
14 May -3.8 04:29:24 10° WNW 04:32:48 86° SSW 04:36:10 10° ESE visible
14 May -1.8 21:16:09 10° SSE 21:17:16 11° SE 21:18:25 10° ESE visible
14 May -3.9 22:50:12 10° SW 22:53:34 77° SSE 22:55:36 22° ENE visible
15 May -1.8 00:27:35 10° WNW 00:30:38 30° NNW 00:33:40 10° NE visible
15 May -1.5 02:05:12 10° NW 02:08:06 26° N 02:11:00 10° ENE visible
15 May -3.3 03:41:59 10° NW 03:45:21 64° NNE 03:48:42 10° ESE visible
15 May -3.6 22:02:56 10° SW 22:06:10 47° SE 22:09:26 10° ENE visible
15 May -2.2 23:39:54 10° W 23:43:04 37° NNW 23:46:15 10° NE visible
16 May -1.4 01:17:38 10° NW 01:20:29 24° N 01:23:20 10° ENE visible
16 May -2.6 02:54:35 10° NW 02:57:51 45° NNE 03:01:07 10° E visible
16 May -3.1 04:31:31 10° WNW 04:34:36 33° SW 04:37:41 10° SSE visible
16 May -2.9 21:15:53 10° SSW 21:18:50 29° SE 21:21:49 10° ENE visible
16 May -2.8 22:52:16 10° W 22:55:32 49° NNW 22:58:50 10° NE visible
17 May -1.4 00:30:01 10° WNW 00:32:53 25° N 00:35:44 10° NE visible
17 May -2.1 02:07:11 10° NW 02:10:20 35° NNE 02:13:28 10° E visible
17 May -3.7 03:43:57 10° WNW 03:47:15 54° SW 03:50:33 10° SE visible
17 May -3.5 22:04:42 10° WSW 22:08:03 70° NNW 22:11:26 10° ENE visible
17 May -1.5 23:42:21 10° WNW 23:45:16 26° N 23:48:12 10° NE visible
18 May -1.8 01:19:44 10° NW 01:22:45 29° NNE 01:22:57 29° NNE visible
18 May -3.8 21:17:16 10° SW 21:20:37 77° SSE 21:23:59 10° ENE visible
18 May -1.7 22:54:39 10° WNW 22:57:41 30° NNW 23:00:43 10° NE visible
19 May -1.5 00:32:16 10° NW 00:35:09 26° N 00:36:34 19° NE visible
19 May -1.0 02:09:03 10° NW 02:09:28 13° NW 02:09:28 13° NW visible
19 May -2.1 22:06:58 10° W 22:10:07 36° NNW 22:13:18 10° NE visible
19 May -1.4 23:44:42 10° NW 23:47:33 24° N 23:50:24 10° ENE visible
20 May -1.7 01:21:38 10° NW 01:23:19 25° NW 01:23:19 25° NW visible
20 May -2.7 21:19:19 10° W 21:22:36 48° NNW 21:25:53 10° NE visible
20 May -1.4 22:57:05 10° WNW 22:59:56 25° N 23:02:47 10° NE visible
